This demonstration page uses our WeatherBlox Daily Observations layout. Learn more.

Left ArrowRight Arrow

39.51506, -84.39828

Hourly Observations for March 12, 2018

Temp ( °F °C ) Dew Point ( °F °C ) Humidity (%) Winds ( mph kmh ) Pressure ( in mb ) Visibility ( mi km ) Precip ( " mm )
12:15 am 00:15 Clear 35 1.7 20 -6.7 54 54 NNE 12 19 30.09 1019 10 16.0934 N/A
12:35 am 00:35 Clear 35 1.7 20 -6.8 54 54 NE 13 20 30.09 1019 10 16.0934 N/A
12:55 am 00:55 Clear 35 1.6 20 -6.9 54 54 NNE 15 24 30.06 1018 10 16.0934 N/A
1:15 am 01:15 Clear 35 1.5 19 -7.1 53 53 NE 15 24 30.06 1018 10 16.0934 N/A
1:35 am 01:35 Clear 34 1.3 19 -7 54 54 NNE 12 19 30.09 1019 10 16.0934 N/A
1:55 am 01:55 Clear 34 1.1 20 -6.8 56 56 NNE 13 20 30.09 1019 10 16.0934 N/A
2:15 am 02:15 Clear 34 0.9 20 -6.8 57 57 NE 13 20 30.09 1019 10 16.0934 N/A
2:35 am 02:35 Clear 33 0.8 20 -6.7 58 58 NE 12 19 30.09 1019 10 16.0934 N/A
2:55 am 02:55 Clear 33 0.6 20 -6.5 59 59 NNE 15 24 30.09 1019 10 16.0934 N/A
3:15 am 03:15 Clear 33 0.3 20 -6.6 60 60 NNE 10 17 30.09 1019 10 16.0934 N/A
3:35 am 03:35 Clear 32 0.1 20 -6.6 61 61 NNE 12 19 30.06 1018 10 16.0934 N/A
3:55 am 03:55 Clear 32 -0.1 20 -6.5 62 62 NNE 10 17 30.06 1018 10 16.0934 N/A
4:15 am 04:15 Clear 31 -0.5 21 -6.3 65 65 N 9 15 30.06 1018 10 16.0934 N/A
4:35 am 04:35 Clear 31 -0.7 21 -6.3 66 66 NNE 12 19 30.03 1017 10 16.0934 N/A
4:55 am 04:55 Clear 30 -0.9 21 -6.2 68 68 NNE 10 17 30.03 1017 10 16.0934 N/A
5:15 am 05:15 Clear 30 -1 21 -6.3 68 68 NNE 10 17 30.03 1017 10 16.0934 N/A
5:35 am 05:35 Clear 30 -1.3 20 -6.4 69 69 N 10 17 30.06 1018 10 16.0934 N/A
5:55 am 05:55 Clear 29 -1.7 20 -6.4 71 71 N 7 11 30.06 1018 10 16.0934 N/A
6:15 am 06:15 Clear 28 -2.2 20 -6.5 73 73 N 7 11 30.06 1018 10 16.0934 N/A
6:35 am 06:35 Clear 28 -2.5 20 -6.5 74 74 N 8 13 30.06 1018 10 16.0934 N/A
6:55 am 06:55 Clear 27 -2.8 20 -6.5 76 76 N 8 13 30.06 1018 10 16.0934 N/A
7:15 am 07:15 Clear 27 -2.9 20 -6.6 76 76 N 9 15 30.06 1018 10 16.0934 N/A
7:35 am 07:35 Clear 26 -3.2 20 -6.8 76 76 N 8 13 30.09 1019 10 16.0934 N/A
7:55 am 07:55 Sunny 26 -3.4 20 -6.8 78 78 N 8 13 30.09 1019 10 16.0934 N/A
8:15 am 08:15 Sunny 26 -3.6 20 -6.9 78 78 N 5 7 30.09 1019 10 16.0934 N/A
8:35 am 08:35 Sunny 27 -3 20 -6.5 77 77 N 5 7 30.09 1019 10 16.0934 N/A
8:55 am 08:55 Sunny 28 -2.4 21 -6.3 75 75 N 7 11 30.09 1019 10 16.0934 N/A
9:15 am 09:15 Sunny 29 -1.9 21 -6.3 72 72 N 8 13 30.09 1019 10 16.0934 N/A
9:35 am 09:35 Sunny 30 -1 21 -6 69 69 NNE 7 11 30.09 1019 10 16.0934 N/A
9:55 am 09:55 Sunny 31 -0.4 21 -6 66 66 N 8 13 30.09 1019 10 16.0934 N/A
10:15 am 10:15 Sunny 33 0.3 21 -6.1 63 63 N 7 11 30.09 1019 10 16.0934 N/A
10:35 am 10:35 Sunny 34 1.1 21 -6 60 60 N 8 13 30.09 1019 10 16.0934 N/A
10:55 am 10:55 Sunny 35 1.9 21 -6.1 56 56 N 12 19 30.09 1019 10 16.0934 N/A
11:15 am 11:15 Partly Cloudy 37 2.6 20 -6.4 52 52 NNE 10 17 30.09 1019 10 16.0934 N/A
11:35 am 11:35 Cloudy 37 2.8 21 -6.2 52 52 NNW 9 15 30.09 1019 10 16.0934 N/A
11:55 am 11:55 Cloudy 37 2.6 20 -6.5 52 52 NNW 9 15 30.09 1019 10 16.0934 N/A
12:15 pm 12:15 Cloudy 37 2.9 20 -6.7 50 50 N 7 11 30.09 1019 10 16.0934 N/A
12:35 pm 12:35 Cloudy 37 2.9 21 -6.2 52 52 N 7 11 30.09 1019 10 16.0934 N/A
12:55 pm 12:55 Cloudy 37 2.9 21 -6.1 52 52 NNW 9 15 30.06 1018 10 16.0934 N/A
1:15 pm 13:15 Cloudy 39 3.7 22 -5.6 51 51 NNW 8 13 30.06 1018 10 16.0934 N/A
1:35 pm 13:35 Cloudy 40 4.2 22 -5.4 50 50 NNW 9 15 30.03 1017 10 16.0934 N/A
1:55 pm 13:55 Cloudy 39 3.9 21 -5.9 49 49 N 12 19 30.03 1017 10 16.0934 N/A
2:15 pm 14:15 Cloudy 39 4 22 -5.7 50 50 WNW 12 19 30.03 1017 10 16.0934 N/A
2:35 pm 14:35 Cloudy 39 3.7 22 -5.6 51 51 WNW 12 19 30.06 1018 10 16.0934 N/A
2:55 pm 14:55 Cloudy 39 3.7 22 -5.3 52 52 WNW 12 19 30.06 1018 10 16.0934 N/A
3:15 pm 15:15 Cloudy 41 4.8 24 -4.6 51 51 WNW 12 19 30 1016 10 16.0934 N/A
3:35 pm 15:35 Partly Cloudy 42 5.8 26 -3.4 52 52 WNW 7 11 30 1016 10 16.0934 N/A
3:55 pm 15:55 Cloudy 41 5.1 25 -3.8 53 53 WNW 13 20 30 1016 10 16.0934 N/A
4:15 pm 16:15 Cloudy 40 4.6 26 -3.3 57 57 NNW 13 20 30 1016 10 16.0934 N/A
4:35 pm 16:35 Cloudy 40 4.6 27 -2.9 59 59 NNW 13 20 30 1016 10 16.0934 N/A
4:55 pm 16:55 Cloudy 40 4.3 26 -3.3 58 58 NW 13 20 30 1016 10 16.0934 N/A
5:15 pm 17:15 Cloudy 39 4 27 -3 61 61 NW 12 19 30.03 1017 10 16.0934 N/A
5:35 pm 17:35 Cloudy 39 3.9 26 -3.1 61 61 NNW 10 17 30.03 1017 10 16.0934 N/A
5:55 pm 17:55 Cloudy 39 3.7 27 -2.9 62 62 NW 13 20 30.06 1018 10 16.0934 N/A
6:15 pm 18:15 Cloudy 39 3.8 28 -2.5 64 64 NW 12 19 30.03 1017 10 16.0934 N/A
6:35 pm 18:35 Cloudy 38 3.4 28 -2.1 68 68 NW 16 26 30.06 1018 10 16.0934 N/A
6:55 pm 18:55 Cloudy with Light Rain 37 2.7 30 -1 77 77 WNW 10 17 30.06 1018 10 16.0934 N/A
7:15 pm 19:15 Cloudy 37 2.5 30 -1.2 77 77 WNW 8 13 30.09 1019 10 16.0934 N/A
7:35 pm 19:35 Cloudy 37 2.6 30 -1.3 76 76 WNW 10 17 30.09 1019 10 16.0934 N/A
7:55 pm 19:55 Mostly Cloudy 36 2.4 28 -2.2 72 72 WNW 15 24 30.09 1019 10 16.0934 N/A
8:15 pm 20:15 Mostly Cloudy 36 2.1 28 -2.2 73 73 NW 8 13 30.09 1019 10 16.0934 N/A
8:35 pm 20:35 Cloudy 36 2.2 28 -2 74 74 NW 7 11 30.09 1019 10 16.0934 N/A
8:55 pm 20:55 Cloudy 36 2.1 28 -2 75 75 NW 7 11 30.09 1019 10 16.0934 N/A
9:15 pm 21:15 Mostly Cloudy 35 1.9 27 -2.8 71 71 NW 8 13 30.12 1020 10 16.0934 N/A
9:35 pm 21:35 Partly Cloudy 35 1.4 27 -2.8 74 74 NW 8 13 30.12 1020 10 16.0934 N/A
9:55 pm 21:55 Clear 33 0.6 27 -3 77 77 WNW 5 7 30.12 1020 10 16.0934 N/A
10:15 pm 22:15 Clear 32 undefined 26 -3.2 79 79 W 3 6 30.12 1020 10 16.0934 N/A
10:35 pm 22:35 Clear 31 -0.6 26 -3.4 82 82 W 5 7 30.12 1020 10 16.0934 N/A
10:55 pm 22:55 Clear 31 -0.7 27 -3 85 85 WNW 3 6 30.12 1020 10 16.0934 N/A
11:15 pm 23:15 Clear 30 -1.2 26 -3.4 85 85 NW 3 6 30.12 1020 10 16.0934 N/A
11:35 pm 23:35 Clear 28 -2.1 24 -4.4 84 84 NW 6 9 30.12 1020 10 16.0934 N/A
11:55 pm 23:55 Clear 30 -1.3 24 -4.5 79 79 NW 6 9 30.12 1020 10 16.0934 N/A

Powered by AerisWeather